Tetonia, ID

10:09 PM MDT on July 29, 2016 (GMT -0600)
Driggs

Weather History for KDIJ - November, 2013

Change the Weather History Date:

Friday, November 1, 2013

  Actual Average (KRXE) Record (KRXE)
Temperature  
Mean Temperature 34 °F 38 °F  
Max Temperature 41 °F 50 °F 70 °F (2014)
Min Temperature 28 °F 27 °F 1 °F (2002)
Degree Days  
Heating Degree Days 30 27  
Month to date heating degree days 27  
Since 1 July heating degree days 1014  
Cooling Degree Days 0 0  
Month to date cooling degree days 0  
Year to date cooling degree days 208  
Moisture  
Dew Point 29 °F    
Average Humidity 82    
Maximum Humidity 100    
Minimum Humidity 60    
Precipitation  
Precipitation 0.21 in 0.04 in 0.30 in (1986)
Month to date precipitation 0.04  
Year to date precipitation 11.03  
Sea Level Pressure  
Sea Level Pressure 30.23 in    
Wind  
Wind Speed 6 mph (ESE)    
Max Wind Speed 9 mph    
Max Gust Speed -    
Visibility 10 miles    
Events      
T = Trace of Precipitation, MM = Missing Value Source: NWS Daily Summary

Daily Weather History Graph

Daily Weather History Graph

Search for Another Location

Airport or City:

Trip Planner

Search our weather history database for the weather conditions in past years. The results will help you decide how hot, cold, wet, or windy it might be!

Date:

Astronomy

Nov. 01, 2013 Rise Set
Actual Time 8:00 AM MDT 6:14 PM MDT
Civil Twilight 7:30 AM MDT 6:44 PM MDT
Nautical Twilight 6:56 AM MDT 7:18 PM MDT
Astronomical Twilight 6:23 AM MDT 7:51 PM MDT
Moon 5:53 AM MDT (11/1) 5:12 PM MDT (11/1)
Length of Visible Light 11h 13m
Length of Day
10h 13m
Waning Crescent, 4% of the Moon is Illuminated
Nov 1
Waning Crescent
Nov 3
New
Nov 9
First Quarter
Nov 17
Full
Nov 25
Last Quarter

Hourly Weather History & Observations

Time (MDT) Temp. Windchill Dew Point Humidity Pressure Visibility Wind Dir Wind Speed Gust Speed Precip Events Conditions
12:56 AM 30.0 °F 21.7 °F 29.1 °F 96% 30.13 in 10.0 mi NE 9.2 mph - N/A   Overcast
1:56 AM 32.0 °F 26.4 °F 30.0 °F 92% 30.15 in 10.0 mi NNE 5.8 mph - N/A   Overcast
2:08 AM 33.8 °F 27.7 °F 30.2 °F 87% 30.17 in 10.0 mi North 6.9 mph - N/A   Overcast
2:34 AM 33.8 °F 30.8 °F 30.2 °F 87% 30.17 in 10.0 mi NNE 3.5 mph - N/A   Overcast
2:56 AM 31.1 °F 27.7 °F 29.1 °F 92% 30.17 in 10.0 mi East 3.5 mph - N/A   Overcast
3:56 AM 31.1 °F - 31.1 °F 100% 30.18 in 10.0 mi Calm Calm - N/A   Overcast
4:56 AM 30.0 °F - 29.1 °F 96% 30.19 in 10.0 mi Calm Calm - N/A   Overcast
5:56 AM 28.0 °F 21.7 °F 25.2 °F 89% 30.21 in 10.0 mi ESE 5.8 mph - N/A   Mostly Cloudy
6:56 AM 29.1 °F 24.1 °F 25.2 °F 85% 30.23 in 10.0 mi East 4.6 mph - N/A   Overcast
7:56 AM 30.0 °F 25.2 °F 27.1 °F 89% 30.25 in 10.0 mi ESE 4.6 mph - N/A   Overcast
8:56 AM 30.0 °F 24.1 °F 27.1 °F 89% 30.26 in 10.0 mi ENE 5.8 mph - N/A   Overcast
9:56 AM 31.1 °F - 28.0 °F 88% 30.28 in 10.0 mi Calm Calm - N/A   Mostly Cloudy
10:56 AM 36.0 °F - 29.1 °F 76% 30.26 in 10.0 mi Calm Calm - N/A   Clear
11:56 AM 41.0 °F 38.0 °F 28.0 °F 60% 30.26 in 9.0 mi ENE 4.6 mph - 0.01 in   Clear
12:56 PM 38.8 °F 35.4 °F 27.1 °F 63% 30.28 in 10.0 mi ESE 4.6 mph - 0.02 in   Clear
1:56 PM 41.9 °F 40.0 °F 29.1 °F 61% 30.23 in 9.0 mi East 3.5 mph - 0.03 in   Clear
2:56 PM 39.9 °F 37.8 °F 29.1 °F 65% 30.25 in 10.0 mi Variable 3.5 mph - 0.03 in   Overcast
3:56 PM 39.9 °F 33.9 °F 29.1 °F 65% 30.25 in 9.0 mi South 9.2 mph - 0.05 in   Mostly Cloudy
4:56 PM 38.8 °F 34.6 °F 30.0 °F 71% 30.26 in 9.0 mi SSE 5.8 mph - 0.04 in   Mostly Cloudy
5:56 PM 37.9 °F 31.5 °F 31.1 °F 76% 30.25 in 9.0 mi SE 9.2 mph - 0.02 in   Scattered Clouds
6:56 PM 36.0 °F 30.3 °F 31.1 °F 82% 30.25 in 10.0 mi SSE 6.9 mph - 0.01 in   Mostly Cloudy
7:56 PM 34.9 °F 27.7 °F 30.0 °F 82% 30.27 in 10.0 mi SE 9.2 mph - N/A   Mostly Cloudy
8:56 PM 34.0 °F 28.0 °F 29.1 °F 82% 30.26 in 10.0 mi SE 6.9 mph - N/A   Partly Cloudy
9:56 PM 34.0 °F 27.2 °F 30.0 °F 85% 30.24 in 9.0 mi SE 8.1 mph - N/A   Partly Cloudy
10:56 PM 34.0 °F 26.6 °F 29.1 °F 82% 30.22 in 10.0 mi SE 9.2 mph - N/A   Clear
11:56 PM 34.0 °F 27.2 °F 29.1 °F 82% 30.20 in 10.0 mi SSE 8.1 mph - N/A   Clear